Murray, NE

3:56 PM CDT on September 29, 2016 (GMT -0500)
Plattsmouth Municipal

Weather History for KPMV - March, 2013

Change the Weather History Date:

Saturday, March 30, 2013

  Actual Average (KOFF) Record (KOFF)
Temperature  
Mean Temperature 57 °F -  
Max Temperature 68 °F 54 °F 77 °F (2014)
Min Temperature 47 °F 34 °F 23 °F (2003)
Degree Days  
Heating Degree Days 8    
Growing Degree Days 7 (Base 50)    
Moisture  
Dew Point 42 °F    
Average Humidity 64    
Maximum Humidity 97    
Minimum Humidity 23    
Precipitation  
Precipitation 0.40 in - - ()
Sea Level Pressure  
Sea Level Pressure 29.95 in    
Wind  
Wind Speed 9 mph (WSW)    
Max Wind Speed 18 mph    
Max Gust Speed 28 mph    
Visibility 9 miles    
Events Rain , Thunderstorm    
Averages and records for this station are not official NWS values.
T = Trace of Precipitation, MM = Missing Value Source: NWS Daily Summary

Daily Weather History Graph

Daily Weather History Graph

Search for Another Location

Airport or City:

Trip Planner

Search our weather history database for the weather conditions in past years. The results will help you decide how hot, cold, wet, or windy it might be!

Date:

Astronomy

Mar. 30, 2013 Rise Set
Actual Time 7:09 AM CDT 7:46 PM CDT
Civil Twilight 6:42 AM CDT 8:14 PM CDT
Nautical Twilight 6:09 AM CDT 8:47 PM CDT
Astronomical Twilight 5:36 AM CDT 9:20 PM CDT
Moon 11:56 PM CDT (3/30) 9:04 AM CDT (3/30)
Length of Visible Light 13h 32m
Length of Day
12h 36m
Waning Gibbous, 86% of the Moon is Illuminated
Mar 30
Waning Gibbous
Apr 2
Last Quarter
Apr 10
New
Apr 18
First Quarter
Apr 25
Full

Hourly Weather History & Observations

Time (CDT) Temp. Dew Point Humidity Pressure Visibility Wind Dir Wind Speed Gust Speed Precip Events Conditions
12:15 AM 56.3 °F 31.5 °F 39% 30.06 in 10.0 mi SE 11.5 mph 17.3 mph N/A Thunderstorm Overcast
12:35 AM 55.4 °F 31.8 °F 41% 30.07 in 10.0 mi SE 9.2 mph - N/A   Overcast
12:55 AM 55.0 °F 32.0 °F 42% 30.08 in 10.0 mi SE 6.9 mph - N/A   Overcast
1:15 AM 54.7 °F 32.0 °F 42% 30.08 in 10.0 mi SSE 10.4 mph 16.1 mph N/A   Overcast
1:35 AM 54.5 °F 32.4 °F 43% 30.08 in 10.0 mi SSE 9.2 mph - N/A Thunderstorm Overcast
1:55 AM 54.5 °F 33.6 °F 45% 30.09 in 10.0 mi South 9.2 mph - N/A Rain Light Rain
2:15 AM 51.8 °F 38.3 °F 60% 30.09 in 10.0 mi South 10.4 mph - N/A Rain Rain
2:35 AM 49.3 °F 40.6 °F 72% 30.07 in 7.0 mi SE 9.2 mph - 0.02 in Rain Rain
2:55 AM 48.9 °F 41.0 °F 74% 30.08 in 10.0 mi SW 15.0 mph - 0.05 in Rain Rain
3:15 AM 48.4 °F 43.5 °F 83% 30.05 in 7.0 mi South 17.3 mph - 0.05 in Rain Rain
3:35 AM 47.8 °F 43.7 °F 86% 29.98 in 3.0 mi SSE 17.3 mph - 0.10 in   Overcast
3:55 AM 47.7 °F 43.9 °F 87% 29.96 in 10.0 mi SSE 16.1 mph 27.6 mph 0.11 in   Scattered Clouds
4:15 AM 48.4 °F 44.1 °F 85% 29.94 in 10.0 mi SSE 15.0 mph 23.0 mph N/A   Scattered Clouds
4:35 AM 48.6 °F 44.6 °F 86% 29.94 in 10.0 mi South 12.7 mph 17.3 mph N/A Thunderstorm Thunderstorm
4:55 AM 49.1 °F 44.8 °F 85% 29.94 in 10.0 mi SSE 17.3 mph 24.2 mph N/A   Scattered Clouds
5:15 AM 49.1 °F 44.6 °F 84% 29.93 in 10.0 mi SSE 16.1 mph 21.9 mph N/A   Scattered Clouds
5:35 AM 48.2 °F 43.7 °F 84% 29.93 in 10.0 mi SSE 12.7 mph - N/A   Drizzle
5:55 AM 48.0 °F 44.6 °F 88% 29.99 in 7.0 mi NW 5.8 mph - 0.02 in Rain Heavy Rain
6:15 AM 48.9 °F 46.0 °F 90% 30.00 in 2.0 mi North 6.9 mph - 0.12 in   Overcast
6:35 AM 49.1 °F 46.9 °F 92% 29.97 in 3.0 mi SE 6.9 mph - 0.20 in Rain Light Rain
6:55 AM 48.4 °F 46.9 °F 95% 29.97 in 5.0 mi SE 4.6 mph - 0.21 in Rain Rain
7:15 AM 48.4 °F 47.1 °F 95% 29.96 in 7.0 mi SE 6.9 mph - N/A   Light Drizzle
7:35 AM 48.2 °F 46.9 °F 95% 29.96 in 5.0 mi ESE 5.8 mph - N/A Rain , Thunderstorm Rain
7:55 AM 48.4 °F 47.5 °F 97% 29.95 in 5.0 mi SSE 9.2 mph - N/A   Overcast
8:15 AM 48.4 °F 47.5 °F 97% 29.96 in 5.0 mi SSE 8.1 mph - N/A Thunderstorm Mostly Cloudy
8:35 AM 49.1 °F 47.8 °F 95% 29.96 in 5.0 mi SSE 6.9 mph - 0.01 in   Mostly Cloudy
8:55 AM 49.3 °F 47.5 °F 94% 29.96 in 7.0 mi SSE 6.9 mph - 0.01 in   Scattered Clouds
9:15 AM 49.3 °F 47.3 °F 93% 29.95 in 10.0 mi SSE 8.1 mph - N/A   Mostly Cloudy
9:35 AM 49.3 °F 47.3 °F 93% 29.96 in 10.0 mi SSE 4.6 mph - N/A   Scattered Clouds
9:55 AM 50.9 °F 48.2 °F 90% 29.95 in 10.0 mi SSE 8.1 mph - N/A   Clear
10:15 AM 52.0 °F 49.1 °F 90% 29.95 in 10.0 mi South 3.5 mph - N/A   Scattered Clouds
10:35 AM 53.2 °F 50.2 °F 89% 29.95 in 10.0 mi Calm Calm - N/A   Scattered Clouds
10:55 AM 55.8 °F 52.0 °F 87% 29.94 in 10.0 mi West 5.8 mph - N/A   Scattered Clouds
11:15 AM 57.6 °F 52.9 °F 84% 29.94 in 10.0 mi West 6.9 mph - N/A   Clear
11:35 AM 59.5 °F 53.2 °F 80% 29.94 in 10.0 mi West 8.1 mph - N/A   Scattered Clouds
11:55 AM 61.7 °F 52.7 °F 72% 29.93 in 10.0 mi West 8.1 mph - N/A   Mostly Cloudy
12:15 PM 61.3 °F 52.5 °F 73% 29.93 in 10.0 mi West 11.5 mph - N/A   Mostly Cloudy
12:35 PM 61.5 °F 52.9 °F 73% 29.93 in 10.0 mi WNW 11.5 mph 18.4 mph N/A   Overcast
12:55 PM 61.7 °F 52.3 °F 71% 29.93 in 10.0 mi NW 11.5 mph - N/A   Overcast
1:15 PM 62.1 °F 52.5 °F 71% 29.92 in 10.0 mi WNW 12.7 mph 16.1 mph N/A   Overcast
1:35 PM 64.2 °F 51.8 °F 64% 29.91 in 10.0 mi NW 9.2 mph - N/A   Mostly Cloudy
1:55 PM 65.1 °F 51.1 °F 60% 29.91 in 10.0 mi NW 12.7 mph 18.4 mph N/A   Scattered Clouds
2:15 PM 65.8 °F 49.8 °F 56% 29.91 in 10.0 mi WNW 13.8 mph 18.4 mph N/A   Scattered Clouds
2:35 PM 66.4 °F 48.6 °F 53% 29.90 in 10.0 mi WNW 10.4 mph 17.3 mph N/A   Scattered Clouds
2:55 PM 65.7 °F 47.5 °F 52% 29.90 in 10.0 mi WNW 8.1 mph 18.4 mph N/A   Scattered Clouds
3:15 PM 66.4 °F 45.3 °F 47% 29.89 in 10.0 mi NW 18.4 mph 24.2 mph N/A   Mostly Cloudy
3:35 PM 66.9 °F 37.4 °F 34% 29.89 in 10.0 mi NNW 13.8 mph 23.0 mph N/A   Scattered Clouds
3:55 PM 67.6 °F 35.8 °F 31% 29.89 in 10.0 mi NNW 15.0 mph 24.2 mph N/A   Clear
4:15 PM 67.6 °F 34.9 °F 30% 29.89 in 10.0 mi NNW 13.8 mph 24.2 mph N/A   Clear
4:35 PM 66.2 °F 34.9 °F 31% 29.90 in 10.0 mi NNW 15.0 mph 20.7 mph N/A   Clear
4:55 PM 67.1 °F 33.6 °F 29% 29.89 in 10.0 mi NW 15.0 mph 19.6 mph N/A   Clear
5:15 PM 66.0 °F 27.5 °F 23% 29.89 in 10.0 mi North 12.7 mph 21.9 mph N/A   Clear
5:35 PM 64.0 °F 30.2 °F 28% 29.90 in 10.0 mi North 9.2 mph 18.4 mph N/A   Clear
5:55 PM 63.7 °F 32.4 °F 31% 29.90 in 10.0 mi NNW 13.8 mph 17.3 mph N/A   Clear
6:15 PM 63.3 °F 34.2 °F 34% 29.90 in 10.0 mi NNW 9.2 mph 17.3 mph N/A   Scattered Clouds
6:35 PM 61.7 °F 36.3 °F 39% 29.91 in 10.0 mi NNW 9.2 mph - N/A   Clear
6:55 PM 60.8 °F 37.4 °F 42% 29.91 in 10.0 mi North 4.6 mph - N/A   Clear
7:15 PM 59.9 °F 32.4 °F 35% 29.91 in 10.0 mi North 5.8 mph - N/A   Clear
7:35 PM 58.6 °F 33.6 °F 39% 29.91 in 10.0 mi North 4.6 mph - N/A   Clear
7:55 PM 57.2 °F 34.7 °F 43% 29.91 in 10.0 mi North 3.5 mph - N/A   Scattered Clouds
8:15 PM 56.5 °F 34.9 °F 44% 29.91 in 10.0 mi Calm Calm - N/A   Scattered Clouds
8:35 PM 55.0 °F 34.9 °F 47% 29.92 in 10.0 mi Calm Calm - N/A   Clear
8:55 PM 54.0 °F 35.6 °F 50% 29.93 in 10.0 mi Calm Calm - N/A   Clear
9:15 PM 54.5 °F 36.5 °F 51% 29.94 in 10.0 mi Calm Calm - N/A   Clear
9:35 PM 53.1 °F 37.8 °F 56% 29.94 in 10.0 mi NNW 3.5 mph - N/A   Clear
9:55 PM 52.2 °F 38.3 °F 59% 29.95 in 10.0 mi NW 4.6 mph - N/A   Clear
10:15 PM 54.0 °F 37.4 °F 54% 29.95 in 10.0 mi Calm Calm - N/A   Scattered Clouds
10:35 PM 53.2 °F 37.8 °F 56% 29.95 in 10.0 mi Calm Calm - N/A   Scattered Clouds
10:55 PM 52.7 °F 38.3 °F 58% 29.95 in 10.0 mi Calm Calm - N/A   Clear
11:15 PM 51.3 °F 37.9 °F 60% 29.95 in 10.0 mi Calm Calm - N/A   Clear
11:35 PM 48.6 °F 38.1 °F 67% 29.94 in 10.0 mi West 3.5 mph - N/A   Clear
11:55 PM 48.2 °F 38.3 °F 69% 29.94 in 10.0 mi WNW 4.6 mph - N/A   Clear